User: anonymous
Location: Unspecified
(0.0000°N, 0.0000°E)
Time: 12:40:06
(UTC+00:00)
Language:

A-11 Canister half - Orbit

View from above orbital plane
View from above orbital plane
View from above satellite
View from above satellite

Ground track
Ground track

The orbit data is extracted from the following two-line orbital elements,

1 00053U 60009E   14231.42151962 -.00000084  00000-0  00000+0 0  5532
2 00053 047.2780 344.0695 0098635 269.5074 200.0866 12.17144262409255
Epoch (UTC): 19 August 2014 10:06:59
Eccentricity: 0.0098635
inclination: 47.2780°
perigee height: 1526 km
apogee height: 1684 km
right ascension of ascending node: 344.0695°
argument of perigee: 269.5074°
revolutions per day: 12.17144262
mean anomaly at epoch: 200.0866°
orbit number at epoch: 40925

The dashed part of the orbit path shows where the satellite is in the earth's shadow,  

DLR